Voltar ao catálogo

YUNYAO-1 55

AtivoMeteoSSO
NORAD 63291·PAYLOAD·🇨🇳 China
Este nome de satélite ainda não foi confirmado por fontes oficiais.

Lançado Mar 17, 2025 de Jiuquan Satellite Launch Center

Loading…

Próximas Passagens (próximas 24 horas)

TLE

AtualizadoSource: Space-Track

Época: Sep 14, 2026, 13:54 UTC

1 63291U 25055A   26257.57949961  .00006257  00000-0  34855-3 0  9998
2 63291  97.6654  37.9465 0024376 150.6812 209.5793 15.13727679 82574

Acompanhe YUNYAO-1 55 em tempo real com AllMySat

Download on the App Store